Regional Weather Roundup
Issued by NWS

Home | Current Version | Previous Version | Graphics & Text | Print | Product List | Glossary On
Versions: 1 2 3 4 5 6 7 8 9 10 11 12 13 14 15 16 17 18 19 20 21 22 23 24 25 26 27 28 29 30 31 32 33 34 35 36 37 38 39 40 41 42 43 44 45 46 47 48 49 50
000
ASUS43 KDMX 291407
RWRIA

WEATHER ROUNDUP FOR IOWA
NATIONAL WEATHER SERVICE DES MOINES IA
900 AM CDT SUN MAR 29 2015

NOTE: "FAIR" INDICATES FEW OR NO CLOUDS BELOW 12,000 FEET WITH NO
SIGNIFICANT WEATHER AND/OR OBSTRUCTIONS TO VISIBILITY.

* - THESE STATIONS ARE NOT NWS STATIONS...THUS NOT UNDER NWS
QUALITY CONTROL.  THEY ALSO DO NOT REPORT WEATHER SUCH
AS PRECIPITATION OR FOG.

IAZ001>003-012>014-020>022-031>034-043>046-291500-
   NORTHWEST IOWA

CITY           SKY/WX    TMP DP  RH WIND       PRES   REMARKS
CARROLL *      SUNNY     43  37  81 SW24G30   29.82S
CHEROKEE *     MOSUNNY   45  39  81 SW7       29.80R
DENISON *      SUNNY     41  37  87 SW14      29.83S
LE MARS *      SUNNY     52  37  58 W21G32    29.81R
ORANGE CITY *  SUNNY     52  37  58 W20G25    29.77F
SHELDON *      SUNNY     50  39  66 W18G28    29.74F
SIOUX CITY     MOSUNNY   51  36  56 W13       29.83S
SPENCER        SUNNY     48  40  73 W17       29.74S
STORM LAKE *   SUNNY     45  39  81 W16       29.79S
$$

IAZ055>058-069>071-079>083-090>094-291500-
   SOUTHWEST IOWA

CITY           SKY/WX    TMP DP  RH WIND       PRES   REMARKS
ATLANTIC *     SUNNY     43  39  87 SW16      29.88S
AUDUBON *      SUNNY     41  36  81 SW10G18   29.87S
CLARINDA *     SUNNY     45  39  81 S14G20    29.95R
COUNCIL BLFS * SUNNY     43  39  87 SW12      29.89S
CRESTON *      SUNNY     39  39 100 SW15      29.92R WCI  31
HARLAN  *      SUNNY     43  43 100 SW15      29.90S
LAMONI         CLOUDY    39  35  86 S14       29.93R WCI  31
RED OAK *      SUNNY     45  37  76 S13G18    29.91S
SHENANDOAH *   SUNNY     45  39  81 SW13      29.94R
$$

IAZ047>049-059>061-072>074-084-291500-
   CENTRAL IOWA

CITY           SKY/WX    TMP DP  RH WIND       PRES   REMARKS
AMES           PTSUNNY   41  36  82 SW20      29.83F
ANKENY *       MOSUNNY   43  37  81 SW17G23   29.87S
CHARITON *     PTSUNNY   39  36  87 SW18      29.91F WCI  30
DES MOINES     CLOUDY    43  37  79 SW17      29.88F
GRINNELL*      MOSUNNY   37  36  93 S16G23    29.87F WCI  28
KNOXVILLE *    PTSUNNY   39  36  87 SW18G24   29.89S WCI  30
MARSHALLTOWN   MOSUNNY   38  35  89 S22G31    29.82F WCI  27
PELLA *        PTSUNNY   39  37  93 SW14G21   29.91F WCI  31
PERRY *          N/A     43  39  87 SW23G30   29.84F
$$

IAZ004>006-015-016-023>025-035-036-291500-
   NORTH CENTRAL IOWA

CITY           SKY/WX    TMP DP  RH WIND       PRES   REMARKS
ALGONA *       SUNNY     43  41  93 SW22      29.73F
CLARION *      SUNNY     39  37  93 SW17G24   29.76S WCI  30
ESTHERVILLE    SUNNY     47  39  74 W18G28    29.71R
FORT DODGE *   PTSUNNY   41  34  75 SW18G24   29.79S
MASON CITY     MOSUNNY   37  34  89 S17G28    29.73F WCI  27
FOREST CITY *  SUNNY     37  36  93 SW17G24   29.72F WCI  28
IOWA FALLS *     N/A     37  36  93 S20       29.79F WCI  27
$$

IAZ007>011-017>019-026>030-037>042-050>054-066-291500-
   NORTHEAST IOWA

CITY           SKY/WX    TMP DP  RH WIND       PRES   REMARKS
CEDAR RAPIDS   CLOUDY    33  30  88 S14G22    29.86S WCI  23
CHARLES CITY * CLOUDY    34  34 100 S23       29.76F WCI  22
CLINTON *      CLOUDY    34  27  75 S20G29    29.95F WCI  22
DECORAH *      CLOUDY    34  30  86 S16G28    29.77F WCI  23
DUBUQUE        MIX PCPN  32  27  81 S25G33    29.85F WCI  19
MONTICELLO *   CLOUDY    34  32  93 S14G21    29.89R WCI  24
OELWEIN *      CLOUDY    34  32  93 S21G26    29.83F WCI  22
WATERLOO       CLOUDY    35  33  92 S22G28    29.82F WCI  23
$$

IAZ064-065-067-068-078-291500-
   EAST CENTRAL IOWA

CITY           SKY/WX    TMP DP  RH WIND       PRES   REMARKS
DAVENPORT      MIX PCPN  33  27  78 S26G35    29.94F WCI  20
IOWA CITY      CLOUDY    34  30  85 S18G25    29.91F WCI  23
MT. PLEASANT * CLOUDY    34  30  86 S25       29.94F WCI  21
MUSCATINE *    CLOUDY    36  30  80 S20G30    29.92F WCI  25
QUAD CITIES    LGT RAIN  34  27  75 S18G33    29.93F WCI  23
$$

IAZ062-063-075>077-085>089-095>099-291500-
   SOUTHEAST IOWA

CITY           SKY/WX    TMP DP  RH WIND       PRES   REMARKS
BURLINGTON     MIX PCPN  34  29  82 S20       29.99F WCI  23
FAIRFIELD *    CLOUDY    36  30  80 S23G32    29.90F WCI  24
FORT MADISON * LGT RAIN  34  30  86 S14G24    29.97F WCI  24
KEOKUK *       LGT RAIN  36  32  87 S18G29    29.95F WCI  25
OSKALOOSA *    CLOUDY    36  32  87 S15       29.93R WCI  26
CENTERVILLE *    N/A     37  36  93 S18       29.94S WCI  27
OTTUMWA        LGT RAIN  36  32  85 S18G26    29.93R WCI  26
WASHINGTON *   CLOUDY    36  36 100 S21G28    29.91S WCI  24
$$

ABBREVIATIONS USED IN REMARKS
   TC - TEMPERATURES IN CELSIUS
  WCI - WIND CHILL INDEX
   HX - HEAT INDEX
  VSB - VISIBILITY
$$



USA.gov is the U.S. government's official web portal to all federal, state and local government web resources and services.